When you browse on this site, cookies collect data to enhance your experience and personalize the content and advertising you see.
Visit our Privacy Policy to learn more. By continuing to use the site, you agree to this use of cookies and data.
  • In Sweden
  • List of Countries
  • For 7 days
  • Water Temperature
  • Satellite Maps
  • Weather Map
  • Weather Widgets
  • user-avatar
    Login

    Hourly Weather Omyt

    Today, 23 April, Tuesday

    Time Temperature Precipitation Wind Pressure Humidity
    00:00 +8°C° 0 mm 2 mps 758 mmHg 57%
    01:00 +8°C° 0 mm 2 mps 758 mmHg 58%
    02:00 +8°C° 0 mm 2 mps 758 mmHg 58%
    03:00 +8°C° 0 mm 2 mps 758 mmHg 59%
    04:00 +7°C° 0 mm 2 mps 758 mmHg 60%
    05:00 +7°C° 0 mm 2 mps 758 mmHg 61%
    06:00 +9°C° 0 mm 3 mps 758 mmHg 58%
    07:00 +10°C° 0 mm 3 mps 758 mmHg 55%
    08:00 +12°C° 0 mm 4 mps 759 mmHg 53%
    09:00 +14°C° 0 mm 4 mps 759 mmHg 46%
    10:00 +15°C° 0 mm 5 mps 758 mmHg 39%
    11:00 +17°C° 0 mm 6 mps 758 mmHg 31%
    12:00 +17°C° 0 mm 6 mps 758 mmHg 31%
    13:00 +19°C° 0 mm 6 mps 758 mmHg 31%
    14:00 +19°C° 0 mm 6 mps 758 mmHg 31%
    15:00 +19°C° 0 mm 6 mps 757 mmHg 32%
    16:00 +19°C° 0 mm 6 mps 757 mmHg 34%
    17:00 +17°C° 0 mm 6 mps 757 mmHg 36%
    18:00 +16°C° 0 mm 5 mps 757 mmHg 40%
    19:00 +14°C° 0 mm 4 mps 757 mmHg 45%
    20:00 +12°C° 0 mm 3 mps 757 mmHg 49%
    21:00 +11°C° 0 mm 3 mps 757 mmHg 52%
    22:00 +11°C° 0 mm 4 mps 757 mmHg 54%
    23:00 +10°C° 0 mm 4 mps 757 mmHg 56%

    Tomorrow, 24 April, Wednesday

    Time Temperature Precipitation Wind Pressure Humidity
    00:00 +10°C° 0 mm 4 mps 757 mmHg 57%
    01:00 +8°C° 0 mm 4 mps 757 mmHg 59%
    02:00 +8°C° 0 mm 4 mps 757 mmHg 61%
    03:00 +8°C° 0 mm 4 mps 757 mmHg 62%
    04:00 +7°C° 0 mm 4 mps 757 mmHg 63%
    05:00 +7°C° 0 mm 4 mps 757 mmHg 64%
    06:00 +8°C° 0 mm 5 mps 757 mmHg 59%
    07:00 +10°C° 0 mm 6 mps 757 mmHg 54%
    08:00 +13°C° 0 mm 6 mps 757 mmHg 50%
    09:00 +14°C° 0 mm 7 mps 757 mmHg 45%
    10:00 +15°C° 0 mm 8 mps 757 mmHg 41%
    11:00 +17°C° 0 mm 8 mps 757 mmHg 37%
    12:00 +17°C° 0 mm 8 mps 757 mmHg 36%
    13:00 +18°C° 0 mm 8 mps 757 mmHg 35%
    14:00 +20°C° 0 mm 8 mps 756 mmHg 33%
    15:00 +18°C° 0 mm 7 mps 756 mmHg 35%
    16:00 +18°C° 0 mm 7 mps 756 mmHg 37%
    17:00 +18°C° 0 mm 7 mps 756 mmHg 38%
    18:00 +16°C° 0 mm 6 mps 756 mmHg 42%
    19:00 +15°C° 0 mm 5 mps 756 mmHg 46%
    20:00 +13°C° 0 mm 4 mps 756 mmHg 51%
    21:00 +13°C° 0 mm 4 mps 756 mmHg 53%
    22:00 +12°C° 0 mm 4 mps 756 mmHg 55%
    23:00 +11°C° 0 mm 4 mps 756 mmHg 57%

    Day after tomorrow, 25 April, Thursday

    Time Temperature Precipitation Wind Pressure Humidity
    00:00 +11°C° 0 mm 4 mps 756 mmHg 58%
    01:00 +11°C° 0 mm 4 mps 756 mmHg 60%
    02:00 +10°C° 0 mm 4 mps 756 mmHg 61%
    03:00 +10°C° 0 mm 4 mps 756 mmHg 63%
    04:00 +10°C° 0 mm 4 mps 756 mmHg 64%
    05:00 +10°C° 0 mm 4 mps 756 mmHg 66%
    06:00 +10°C° 0 mm 5 mps 756 mmHg 63%
    07:00 +11°C° 0 mm 6 mps 756 mmHg 60%
    08:00 +13°C° 0 mm 6 mps 756 mmHg 57%
    09:00 +15°C° 0 mm 6 mps 756 mmHg 53%
    10:00 +16°C° 0 mm 6 mps 755 mmHg 50%
    11:00 +18°C° 0 mm 7 mps 755 mmHg 46%
    12:00 +20°C° 0 mm 6 mps 755 mmHg 44%
    13:00 +21°C° 0 mm 6 mps 755 mmHg 43%
    14:00 +22°C° 0 mm 6 mps 755 mmHg 41%
    15:00 +21°C° 0 mm 6 mps 754 mmHg 42%
    16:00 +21°C° 0 mm 5 mps 754 mmHg 44%
    17:00 +21°C° 0 mm 5 mps 754 mmHg 45%
    18:00 +19°C° 0 mm 5 mps 754 mmHg 49%
    19:00 +18°C° 0 mm 4 mps 754 mmHg 53%
    20:00 +15°C° 0 mm 4 mps 754 mmHg 57%
    21:00 +14°C° 0 mm 4 mps 753 mmHg 59%
    22:00 +14°C° 0 mm 4 mps 753 mmHg 61%
    23:00 +13°C° 0 mm 4 mps 753 mmHg 63%

    26 April, Friday

    Time Temperature Precipitation Wind Pressure Humidity
    00:00 +13°C° 0.1 mm 4 mps 753 mmHg 66%
    01:00 +12°C° 0.1 mm 4 mps 753 mmHg 69%
    02:00 +12°C° 0.1 mm 4 mps 753 mmHg 71%
    03:00 +11°C° 0 mm 4 mps 753 mmHg 73%
    04:00 +11°C° 0 mm 4 mps 753 mmHg 74%
    05:00 +11°C° 0 mm 4 mps 752 mmHg 76%
    06:00 +12°C° 0 mm 4 mps 752 mmHg 73%
    07:00 +13°C° 0 mm 5 mps 752 mmHg 70%
    08:00 +14°C° 0 mm 5 mps 752 mmHg 67%
    09:00 +16°C° 0 mm 5 mps 752 mmHg 64%
    10:00 +19°C° 0 mm 5 mps 751 mmHg 60%
    11:00 +21°C° 0 mm 5 mps 751 mmHg 56%
    12:00 +22°C° 0.2 mm 6 mps 751 mmHg 55%
    13:00 +23°C° 0.2 mm 6 mps 750 mmHg 53%
    14:00 +24°C° 0.2 mm 6 mps 750 mmHg 51%
    15:00 +23°C° 0 mm 6 mps 750 mmHg 52%
    16:00 +23°C° 0 mm 6 mps 749 mmHg 53%
    17:00 +23°C° 0 mm 6 mps 749 mmHg 53%
    18:00 +21°C° 1.2 mm 6 mps 748 mmHg 62%
    19:00 +19°C° 1.2 mm 6 mps 748 mmHg 70%
    20:00 +17°C° 1.2 mm 5 mps 748 mmHg 78%
    21:00 +16°C° 1.3 mm 5 mps 748 mmHg 80%
    22:00 +16°C° 1.3 mm 5 mps 748 mmHg 82%
    23:00 +15°C° 1.3 mm 5 mps 748 mmHg 84%

    27 April, Saturday

    Time Temperature Precipitation Wind Pressure Humidity
    00:00 +15°C° 1.9 mm 5 mps 747 mmHg 86%
    01:00 +15°C° 1.9 mm 5 mps 747 mmHg 87%
    02:00 +14°C° 1.9 mm 4 mps 747 mmHg 89%
    03:00 +14°C° 0.2 mm 4 mps 747 mmHg 90%
    04:00 +14°C° 0.2 mm 4 mps 747 mmHg 90%
    05:00 +13°C° 0.2 mm 4 mps 746 mmHg 91%
    06:00 +14°C° 0 mm 4 mps 746 mmHg 88%
    07:00 +15°C° 0 mm 4 mps 746 mmHg 84%
    08:00 +18°C° 0 mm 4 mps 746 mmHg 81%
    09:00 +19°C° 0 mm 4 mps 746 mmHg 75%
    10:00 +21°C° 0 mm 4 mps 746 mmHg 69%
    11:00 +23°C° 0 mm 4 mps 746 mmHg 63%
    12:00 +25°C° 0.4 mm 4 mps 746 mmHg 58%
    13:00 +26°C° 0.4 mm 4 mps 745 mmHg 53%
    14:00 +27°C° 0.4 mm 4 mps 745 mmHg 49%
    15:00 +25°C° 0.7 mm 4 mps 745 mmHg 55%
    16:00 +23°C° 0.7 mm 4 mps 745 mmHg 61%
    17:00 +22°C° 0.7 mm 4 mps 745 mmHg 66%
    18:00 +20°C° 0.2 mm 4 mps 745 mmHg 73%
    19:00 +19°C° 0.2 mm 3 mps 745 mmHg 79%
    20:00 +17°C° 0.2 mm 2 mps 745 mmHg 85%
    21:00 +17°C° 0.1 mm 3 mps 745 mmHg 87%
    22:00 +16°C° 0.1 mm 3 mps 745 mmHg 90%
    23:00 +16°C° 0.1 mm 3 mps 746 mmHg 92%

    28 April, Sunday

    Time Temperature Precipitation Wind Pressure Humidity
    00:00 +14°C° 0 mm 4 mps 746 mmHg 91%
    01:00 +14°C° 0 mm 4 mps 746 mmHg 90%
    02:00 +13°C° 0 mm 5 mps 746 mmHg 89%
    03:00 +12°C° 0 mm 5 mps 746 mmHg 87%
    04:00 +11°C° 0 mm 4 mps 746 mmHg 84%
    05:00 +11°C° 0 mm 4 mps 746 mmHg 82%
    06:00 +11°C° 0 mm 4 mps 747 mmHg 81%
    07:00 +12°C° 0 mm 4 mps 747 mmHg 79%
    08:00 +12°C° 0 mm 3 mps 747 mmHg 78%
    09:00 +13°C° 0 mm 3 mps 747 mmHg 70%
    10:00 +16°C° 0 mm 3 mps 747 mmHg 63%
    11:00 +17°C° 0 mm 3 mps 747 mmHg 56%
    12:00 +17°C° 0.1 mm 3 mps 747 mmHg 55%
    13:00 +18°C° 0.1 mm 3 mps 747 mmHg 55%
    14:00 +18°C° 0.1 mm 3 mps 747 mmHg 54%
    15:00 +18°C° 0.1 mm 3 mps 747 mmHg 56%
    16:00 +17°C° 0.1 mm 2 mps 746 mmHg 57%
    17:00 +17°C° 0.1 mm 2 mps 746 mmHg 58%
    18:00 +16°C° 0 mm 2 mps 746 mmHg 61%
    19:00 +15°C° 0 mm 2 mps 746 mmHg 65%
    20:00 +14°C° 0 mm 1 mps 747 mmHg 68%
    21:00 +13°C° 0 mm 1 mps 747 mmHg 71%
    22:00 +13°C° 0 mm 2 mps 747 mmHg 74%
    23:00 +12°C° 0 mm 2 mps 747 mmHg 77%
    Show more